^^
Station Historical Data
 
Daily Summary for July 29, 2015 Units:  English    Metric   Both
« Previous Day
Next Day »
Daily Weekly Monthly Yearly Custom
  Current: High: Low: Average:
Temperature: 66.9 °F 72.5 °F 66.0 °F 68.1 °F
Dew Point: 65.1 °F 65.1 °F 62.2 °F 63.9 °F
Humidity: 94% 94% 70% 87%
Wind Speed: 1.4mph 1.4mph 0.0mph 0.4mph
Wind Gust: 2.2mph 2.2mph - -
WindESE - - SSE
Pressure: 30.04 in 30.06 in 30.03 in -
Precipitation: 0.00 in      
Historical Graphs
 
 
Tabular Data for July 29, 2015
Time Temperature Dew Point Pressure Wind Wind Speed Wind Gust Humidity Rainfall Rate (Hourly)
00:03 72.5 °F 62.2 °F 30.06 in Calm     70% 0.00 in
00:08 72.3 °F 62.4 °F 30.06 in Calm     71% 0.00 in
00:13 72.1 °F 62.6 °F 30.06 in Calm     72% 0.00 in
00:18 71.8 °F 62.7 °F 30.06 in Calm     73% 0.00 in
00:23 71.6 °F 62.5 °F 30.06 in Calm     73% 0.00 in
00:28 71.6 °F 62.9 °F 30.06 in Calm     74% 0.00 in
00:33 71.6 °F 63.3 °F 30.06 in Calm     75% 0.00 in
00:38 71.4 °F 63.1 °F 30.06 in Calm     75% 0.00 in
00:43 71.2 °F 63.3 °F 30.06 in Calm     76% 0.00 in
00:53 70.7 °F 63.1 °F 30.06 in South 1.0 mph 2.2 mph 77% 0.00 in
00:58 70.3 °F 63.2 °F 30.06 in South 0.6 mph 2.2 mph 78% 0.00 in
01:03 70.3 °F 63.2 °F 30.06 in South 0.4 mph 0.7 mph 78% 0.00 in
01:08 69.8 °F 63.0 °F 30.06 in South 0.6 mph 0.7 mph 79% 0.00 in
01:13 69.8 °F 63.0 °F 30.06 in South 0.3 mph 0.7 mph 79% 0.00 in
01:18 69.6 °F 63.2 °F 30.06 in Calm   0.7 mph 80% 0.00 in
01:23 69.6 °F 63.5 °F 30.06 in Calm     81% 0.00 in
01:28 69.6 °F 63.5 °F 30.06 in Calm     81% 0.00 in
01:33 69.6 °F 63.5 °F 30.06 in Calm     81% 0.00 in
01:39 69.6 °F 63.9 °F 30.06 in Calm     82% 0.00 in
01:44 69.4 °F 63.7 °F 30.06 in Calm   0.7 mph 82% 0.00 in
01:49 69.4 °F 63.7 °F 30.06 in South 0.1 mph 0.7 mph 82% 0.00 in
01:54 69.2 °F 63.5 °F 30.06 in South 0.1 mph 0.7 mph 82% 0.00 in
01:59 69.2 °F 63.9 °F 30.06 in South 0.1 mph 0.7 mph 83% 0.00 in
02:04 69.2 °F 63.9 °F 30.06 in South 0.1 mph 0.7 mph 83% 0.00 in
02:19 68.7 °F 63.7 °F 30.05 in South 0.1 mph 0.7 mph 84% 0.00 in
02:24 68.7 °F 63.7 °F 30.05 in South 0.1 mph 0.7 mph 84% 0.00 in
02:29 68.5 °F 63.9 °F 30.05 in Calm   0.7 mph 85% 0.00 in
02:34 68.5 °F 63.9 °F 30.05 in WNW 0.2 mph 0.7 mph 85% 0.00 in
02:39 68.5 °F 64.2 °F 30.04 in WNW 0.2 mph 0.7 mph 86% 0.00 in
02:44 68.3 °F 64.0 °F 30.05 in SE 0.1 mph 0.7 mph 86% 0.00 in
02:49 68.3 °F 64.3 °F 30.05 in NE 0.3 mph 1.6 mph 87% 0.00 in
02:54 68.2 °F 64.2 °F 30.05 in North 0.3 mph 1.6 mph 87% 0.00 in
02:59 68.2 °F 64.2 °F 30.05 in North 0.2 mph 0.7 mph 87% 0.00 in
03:04 68.2 °F 64.2 °F 30.04 in South 0.4 mph 1.6 mph 87% 0.00 in
03:09 68.2 °F 64.5 °F 30.04 in South 0.4 mph 1.6 mph 88% 0.00 in
03:14 68.2 °F 64.5 °F 30.04 in Calm     88% 0.00 in
03:19 68.2 °F 64.5 °F 30.04 in Calm     88% 0.00 in
03:24 68.0 °F 64.6 °F 30.04 in Calm     89% 0.00 in
03:29 68.0 °F 64.6 °F 30.04 in Calm     89% 0.00 in
03:34 68.0 °F 64.6 °F 30.04 in Calm     89% 0.00 in
03:39 68.0 °F 64.6 °F 30.04 in Calm     89% 0.00 in
03:44 67.8 °F 64.5 °F 30.04 in Calm     89% 0.00 in
03:49 67.8 °F 64.8 °F 30.04 in Calm     90% 0.00 in
03:54 67.8 °F 64.8 °F 30.04 in Calm     90% 0.00 in
03:59 67.8 °F 64.8 °F 30.04 in Calm     90% 0.00 in
04:04 68.0 °F 65.0 °F 30.04 in Calm     90% 0.00 in
04:09 67.8 °F 64.8 °F 30.04 in Calm     90% 0.00 in
04:14 67.6 °F 64.6 °F 30.04 in Calm     90% 0.00 in
04:24 67.6 °F 64.6 °F 30.05 in Calm     90% 0.00 in
04:29 67.4 °F 64.7 °F 30.04 in Calm     91% 0.00 in
04:34 67.3 °F 64.3 °F 30.04 in Calm     90% 0.00 in
04:44 67.1 °F 64.4 °F 30.04 in Calm     91% 0.00 in
04:49 67.1 °F 64.4 °F 30.04 in Calm     91% 0.00 in
04:54 66.9 °F 64.2 °F 30.04 in Calm     91% 0.00 in
04:59 66.9 °F 64.2 °F 30.03 in Calm     91% 0.00 in
05:04 66.9 °F 64.2 °F 30.03 in Calm     91% 0.00 in
05:09 66.9 °F 64.5 °F 30.03 in Calm     92% 0.00 in
05:19 66.7 °F 64.3 °F 30.04 in Calm     92% 0.00 in
05:24 66.5 °F 64.2 °F 30.04 in Calm     92% 0.00 in
05:29 66.5 °F 64.2 °F 30.04 in Calm     92% 0.00 in
05:34 66.5 °F 64.2 °F 30.03 in Calm     92% 0.00 in
05:39 66.5 °F 64.2 °F 30.03 in Calm     92% 0.00 in
05:44 66.4 °F 64.0 °F 30.03 in Calm     92% 0.00 in
05:54 66.2 °F 63.8 °F 30.03 in Calm     92% 0.00 in
05:59 66.2 °F 63.8 °F 30.03 in Calm     92% 0.00 in
06:04 66.2 °F 64.1 °F 30.03 in East 0.2 mph 0.7 mph 93% 0.00 in
06:10 66.0 °F 63.9 °F 30.03 in NNE 0.4 mph 0.7 mph 93% 0.00 in
06:15 66.0 °F 63.9 °F 30.04 in North 0.4 mph 0.7 mph 93% 0.00 in
06:20 66.0 °F 63.9 °F 30.04 in North 0.1 mph 0.7 mph 93% 0.00 in
06:25 66.0 °F 63.9 °F 30.04 in Calm     93% 0.00 in
06:30 66.0 °F 63.9 °F 30.04 in Calm     93% 0.00 in
06:35 66.0 °F 63.9 °F 30.04 in Calm     93% 0.00 in
06:40 66.0 °F 63.9 °F 30.04 in Calm     93% 0.00 in
06:45 66.0 °F 63.9 °F 30.04 in Calm     93% 0.00 in
06:50 66.0 °F 63.6 °F 30.04 in Calm     92% 0.00 in
06:55 66.0 °F 63.6 °F 30.05 in Calm     92% 0.00 in
07:00 66.0 °F 63.9 °F 30.04 in Calm     93% 0.00 in
07:05 66.0 °F 63.9 °F 30.04 in Calm     93% 0.00 in
07:10 66.2 °F 64.1 °F 30.04 in Calm     93% 0.00 in
07:15 66.4 °F 64.3 °F 30.04 in Calm     93% 0.00 in
07:20 66.5 °F 64.5 °F 30.04 in ESE 0.7 mph 2.2 mph 93% 0.00 in
07:25 66.9 °F 65.1 °F 30.04 in ESE 1.4 mph 2.2 mph 94% 0.00 in
Export, Pennsylvania, USA
Compliments of Weather Underground